EHI
1 1 0 0 0 0 0 0 0 0 0 0 0 0 0 0 0 0 2 6 12 18 19 14 11 13 16 14 9 5 3 2 1 0 0 0 0 0 0 0 0 0 0
1 0 0 0 0 0 0 0 0 0 0 0 0 0 0 0 0 0 1 3 9 15 16 13 12 14 15 13 9 6 3 1 0 0 0 0 0 0 0 0 0 0 0
0 0 0 0 0 0 0 0 0 0 0 0 0 0 0 0 0 0 0 1 3 7 10 10 10 11 10 8 7 4 2 0 0 0 0 0 0 0 0 0 0 0 0
0 0 0 0 0 0 0 0 0 0 0 0 0 0 0 0 0 0 0 0 0 2 4 5 5 5 4 3 2 1 0 0 1 0 0 0 0 0 0 0 0 0 0
1 1 1 0 0 0 0 0 0 0 0 0 0 0 0 0 0 0 0 0 0 0 1 1 1 2 1 1 0 0 0 0 0 0 0 0 0 0 0 0 0 0 0
2 2 1 0 0 0 0 0 0 0 0 0 0 0 0 0 0 0 0 0 0 0 0 0 0 0 1 1 1 0 0 0 0 0 0 0 0 0 0 0 0 0 0
2 1 0 0 0 0 0 0 0 0 0 0 0 0 0 0 0 0 0 0 0 0 0 0 0 0 1 1 1 0 0 0 0 0 0 0 0 0 0 0 0 0 0
1 0 0 0 0 0 0 0 0 0 0 0 0 0 0 0 0 0 0 0 0 0 0 0 0 0 0 0 0 0 0 0 0 0 0 0 0 0 0 0 0 0 0
0 0 0 0 0 0 0 0 0 0 0 0 0 0 0 0 0 0 0 0 0 0 0 0 0 0 0 0 0 0 0 0 0 0 0 0 0 0 0 0 0 0 0
0 0 0 0 0 0 0 0 0 0 0 0 0 0 0 0 0 0 0 0 0 0 0 0 0 0 0 0 0 0 0 0 0 0 0 0 0 0 0 0 0 0 0
0 0 0 0 0 0 0 0 0 0 0 0 0 0 0 0 0 0 0 0 0 0 0 0 0 0 0 0 0 0 0 0 0 0 0 0 0 0 0 0 0 0 0
0 0 0 0 0 0 0 0 0 0 0 0 0 0 0 0 0 0 0 0 0 0 0 0 0 0 0 0 0 0 0 0 0 0 0 0 0 0 0 0 0 0 0
0 0 0 0 0 0 0 0 0 0 0 0 0 0 0 0 0 0 0 0 0 0 0 0 0 0 0 0 0 0 0 0 0 0 0 0 0 0 0 0 0 0 0
0 0 0 0 0 0 0 0 0 0 0 0 0 0 0 0 0 0 0 0 0 0 0 0 0 0 0 0 0 0 0 0 0 0 0 0 0 0 0 0 0 0 0
0 0 0 0 0 0 0 0 0 0 0 0 0 0 0 0 0 0 0 0 0 0 0 0 0 0 0 0 0 0 0 0 0 0 0 0 0 0 0 0 0 0 0
0 0 0 0 0 0 0 0 0 0 0 0 0 0 0 0 0 0 0 0 0 0 0 0 0 0 0 0 0 0 0 0 0 0 0 0 0 0 0 0 0 0 0
0 0 0 0 0 0 0 0 0 0 0 0 0 0 0 0 0 0 0 0 0 0 0 0 0 0 0 0 0 0 0 0 0 0 0 0 0 0 0 0 0 0 0
0 0 0 0 0 0 0 0 0 0 0 0 0 0 0 0 0 0 0 0 0 0 0 0 0 0 0 0 0 0 0 0 0 0 0 0 0 0 0 0 0 0 0
0 0 0 0 0 0 0 0 0 0 0 0 0 0 0 0 0 0 0 0 0 0 0 0 0 0 0 0 0 0 0 0 0 0 0 0 0 0 0 0 0 0 0
0 0 0 0 0 0 0 0 0 0 0 0 0 0 0 0 0 0 0 0 0 0 0 0 0 0 0 0 0 0 0 0 0 0 0 0 0 0 0 0 0 0 0
0 0 0 0 0 0 0 0 0 0 0 0 0 0 0 0 0 0 0 0 0 0 0 0 0 0 0 0 0 0 0 0 0 0 0 0 0 0 0 0 0 0 0
0 0 0 0 0 0 0 0 0 0 0 0 0 0 0 0 0 0 0 0 0 0 0 0 0 0 0 0 0 0 0 0 0 0 0 0 0 0 0 0 0 0 0
0 0 0 0 0 0 0 0 0 0 0 0 0 0 0 0 0 0 0 0 0 0 0 0 0 0 0 0 0 0 0 0 0 0 0 0 0 0 0 0 0 0 0
0 0 0 0 0 0 0 0 0 0 0 0 0 0 0 0 0 0 0 0 0 0 0 0 0 0 0 0 0 0 0 0 0 0 0 0 0 0 0 0 0 0 0
0 0 0 0 0 0 0 0 0 0 0 0 0 0 0 0 0 0 0 0 0 0 0 0 0 0 0 0 0 0 0 0 0 0 0 0 0 0 0 0 0 0 0
0 0 0 0 0 0 0 0 0 0 0 0 0 0 0 0 0 0 0 0 0 0 0 0 0 0 0 0 0 0 0 0 0 0 0 0 0 0 0 0 0 0 0
Wind_Speed
3 2 2 1 1 1 1 1 1 1 1 1 1 1 1 1 1 1 1 3 3 3 4 5 5 5 5 5 5 5 5 5 5 4 4 4 4 4 4 4 4 4 5
3 2 2 2 1 1 2 2 2 1 1 2 2 2 3 3 3 2 2 3 4 2 0 2 2 3 3 3 3 3 3 3 3 3 2 2 2 2 2 2 2 3 3
3 2 2 2 1 2 2 2 2 2 2 2 3 3 3 4 4 4 4 3 3 4 4 3 2 2 2 2 2 3 3 2 2 2 2 1 1 1 0 1 1 2 2
3 3 2 1 2 2 2 2 2 2 2 2 3 3 3 4 5 4 4 4 3 3 5 6 6 5 5 4 4 4 4 4 4 4 3 3 3 3 3 3 2 2 3
3 3 2 2 3 3 2 2 2 2 3 3 3 4 4 4 4 5 5 5 5 5 4 6 8 7 6 5 5 4 4 4 4 4 4 4 4 4 4 4 4 4 4
4 3 2 2 3 3 3 3 4 3 3 3 5 5 4 4 4 5 5 5 5 6 6 6 5 6 8 7 7 6 6 6 6 6 6 6 6 6 7 7 7 6 6
5 5 3 3 3 3 3 4 3 4 3 1 3 3 4 5 6 5 4 5 6 6 6 6 5 5 5 9 10 9 8 8 8 8 8 7 8 7 7 7 7 8 8
6 5 5 4 4 4 4 3 2 3 3 2 1 2 1 2 4 5 5 6 6 6 7 7 7 6 5 4 8 12 11 11 10 9 9 8 8 8 8 8 8 8 8
7 7 7 6 6 5 4 4 3 4 3 3 3 1 2 2 1 3 5 6 6 6 6 6 8 7 7 5 5 9 12 11 11 11 10 10 10 9 9 9 9 9 9
8 8 8 8 7 6 6 5 5 3 3 2 3 4 3 2 3 2 2 4 6 7 7 6 6 7 7 5 6 9 10 10 9 9 9 9 8 8 9 10 10 10 11
8 9 8 8 8 7 7 8 7 7 5 4 3 2 3 4 4 3 2 2 3 4 5 5 5 5 6 5 4 6 9 9 8 8 8 9 10 10 10 11 11 12 12
7 9 9 9 8 7 8 8 8 9 7 8 6 5 3 3 2 3 2 1 1 2 3 4 5 5 4 5 5 8 8 8 8 8 9 9 10 11 11 12 12 13 13
6 7 8 8 7 8 8 8 9 9 8 8 7 5 5 4 2 2 2 2 2 2 3 2 3 4 4 4 4 8 8 9 9 9 10 10 11 11 12 12 13 13 14
7 7 8 9 9 9 9 8 8 8 7 8 8 6 5 5 4 3 2 2 2 2 3 3 2 3 4 4 5 8 6 10 10 10 10 11 11 11 12 12 12 13 13
8 9 9 9 9 9 8 8 7 7 7 7 7 7 5 4 4 4 3 2 2 1 1 3 3 3 4 4 6 5 5 9 11 11 11 11 11 12 12 12 13 13 13
8 9 9 9 9 8 8 7 7 6 7 6 5 6 5 4 4 4 4 3 2 2 0 1 2 3 4 4 6 5 5 10 10 11 11 11 11 11 11 12 12 12 12
9 9 8 8 8 8 7 7 7 7 7 6 5 6 5 4 4 3 3 3 2 1 0 1 2 3 3 5 6 6 5 5 6 11 12 11 11 10 11 12 12 12 12
8 8 8 8 8 7 6 7 6 6 6 6 5 5 4 3 4 3 2 2 2 1 0 2 2 3 3 4 5 6 6 5 6 10 11 11 11 10 10 11 11 11 10
8 8 8 8 7 6 6 6 6 5 5 4 3 3 2 3 3 2 1 1 1 1 0 1 3 2 3 3 4 5 6 5 6 7 8 9 11 11 11 10 10 9 9
7 7 7 6 6 6 6 5 5 5 4 4 3 2 1 1 1 1 1 1 1 1 1 2 2 3 3 3 3 4 5 5 5 5 6 8 9 10 10 10 9 9 9
6 5 6 6 5 4 4 4 4 4 4 4 4 3 2 1 1 1 2 2 2 1 2 2 2 2 3 3 3 3 4 6 5 2 5 5 5 5 6 7 8 9 9
5 5 5 5 5 4 6 6 4 4 3 4 4 4 3 3 4 5 6 5 3 3 3 2 2 3 4 4 3 3 3 4 5 2 4 6 4 5 5 4 7 10 9
4 4 4 4 4 5 7 7 6 3 3 3 2 3 3 3 4 4 6 7 5 5 5 4 4 5 4 3 4 5 4 4 5 4 3 5 3 5 5 5 9 9 10
3 2 2 3 3 4 7 7 6 4 3 3 2 2 3 4 4 5 6 6 6 4 4 4 6 7 7 7 5 4 4 6 6 4 3 3 4 4 5 5 6 9 10
2 2 2 2 2 4 6 6 5 3 3 4 4 4 4 4 7 7 5 6 7 5 4 5 7 9 10 10 7 3 3 3 4 3 1 3 3 4 4 4 5 7 9
2 2 2 2 2 2 5 7 5 3 4 4 5 4 5 6 9 7 3 3 5 6 7 8 7 6 5 5 3 4 3 3 3 4 1 2 3 3 4 3 4 5 6
Wind_Direction
182 181 181 171 179 173 164 154 131 81 55 48 43 34 14 12 358 320 311 299 269 247 240 231 222 210 210 208 202 198 199 200 203 200 199 199 201 207 213 218 220 223 227
179 176 176 172 179 175 154 145 144 110 65 52 40 30 20 16 25 26 19 13 24 31 267 213 208 197 199 191 182 179 180 175 171 162 168 177 184 193 204 212 223 234 242
172 168 170 173 173 148 133 120 106 85 76 64 45 33 32 30 34 34 32 30 24 32 49 67 78 82 89 105 120 125 122 118 116 117 120 113 105 74 327 284 268 267 269
160 153 154 158 131 115 117 117 108 91 78 71 61 46 41 39 38 40 44 41 37 30 36 50 56 64 67 69 74 80 86 88 84 77 70 67 62 52 32 19 2 340 317
131 128 129 125 115 108 108 116 92 99 98 91 82 62 47 41 33 39 41 38 41 40 36 45 51 54 56 56 59 64 68 72 74 67 55 48 46 41 27 11 353 339 328
101 106 101 91 99 106 100 100 98 83 86 95 90 74 55 46 42 36 34 35 39 42 40 36 35 40 46 51 53 51 51 50 56 59 50 44 40 35 30 18 5 350 335
86 90 92 84 86 94 101 107 108 96 75 72 104 86 57 51 52 39 36 41 40 40 43 41 40 35 36 48 49 50 50 49 50 46 43 38 34 28 20 12 5 357 349
84 91 91 86 81 91 86 84 102 106 64 27 105 127 112 56 39 35 37 42 38 40 43 43 43 43 41 38 44 50 49 46 46 44 37 27 19 14 7 359 353 347 340
78 82 85 86 77 77 78 67 72 102 111 55 39 113 155 167 109 38 38 40 37 40 39 40 43 40 41 40 35 39 45 42 39 35 29 24 18 10 358 344 336 331 328
71 76 79 81 79 76 75 65 55 64 100 101 61 43 52 104 138 121 36 30 38 40 37 39 38 36 34 33 34 37 39 33 27 21 13 6 358 351 345 340 330 320 313
66 71 74 77 76 73 72 71 67 63 64 74 71 60 56 51 54 110 103 26 32 28 31 34 35 31 28 27 18 22 25 18 10 2 356 350 343 338 334 330 328 322 317
70 68 75 76 77 77 75 74 73 71 72 73 68 60 62 65 55 79 107 80 41 10 13 23 30 22 17 14 8 15 11 2 355 349 345 340 334 330 326 323 320 317 316
78 70 76 76 76 77 77 77 76 72 69 72 72 68 62 55 50 70 94 93 55 4 351 2 11 9 10 2 352 357 356 351 347 343 339 333 327 323 321 319 316 315 314
84 79 78 77 74 74 76 75 75 73 71 71 70 66 64 50 46 52 83 112 85 28 9 345 332 349 354 345 341 350 342 341 337 335 331 325 322 320 318 315 312 310 309
86 78 76 75 72 71 73 76 76 74 74 71 70 68 64 49 47 50 56 71 115 93 -0 325 321 328 337 329 338 341 333 331 331 330 324 319 317 317 316 314 311 307 302
81 81 76 74 71 68 70 75 76 73 76 70 72 72 65 55 51 49 55 56 67 122 139 294 290 302 317 328 334 332 321 326 325 324 322 320 316 315 317 316 314 310 304
80 78 77 75 71 67 67 74 74 72 73 66 63 72 67 63 58 47 50 54 52 68 103 293 279 294 304 319 329 328 320 317 315 316 317 316 316 317 317 317 315 311 308
79 79 76 72 69 66 63 69 73 69 71 68 61 66 63 66 57 43 42 40 34 33 117 303 300 303 297 309 316 317 319 318 312 308 311 312 317 320 318 315 314 310 307
78 74 73 71 66 64 62 62 68 69 67 63 60 65 62 66 51 30 21 11 352 3 292 279 294 291 292 307 320 316 318 315 317 311 310 315 320 322 320 318 317 314 310
82 77 74 71 65 62 61 62 66 64 58 52 49 52 53 72 44 348 342 331 316 324 303 290 291 294 291 298 303 318 328 330 323 320 323 321 320 323 325 326 326 327 324
84 80 76 66 58 57 53 63 62 61 52 41 33 24 5 20 24 351 332 308 295 299 307 306 303 301 302 310 321 322 315 321 313 314 321 320 323 324 328 330 331 333 330
77 74 70 64 52 45 43 60 71 58 45 38 21 2 351 10 360 355 348 339 304 272 280 280 284 294 293 290 293 305 312 326 316 320 323 310 317 316 323 325 327 330 331
83 79 69 61 48 31 41 49 59 62 45 27 11 352 347 351 353 339 333 333 323 293 252 234 261 272 277 283 298 302 303 302 288 300 319 299 306 309 317 318 326 332 336
85 84 76 60 45 30 40 44 46 46 34 13 352 333 329 331 339 338 328 327 322 309 280 247 250 266 268 273 259 264 291 297 284 268 237 281 303 308 314 313 321 335 341
90 91 88 72 47 16 25 35 40 21 15 1 353 348 335 326 324 334 329 326 327 324 309 286 272 276 277 276 261 243 265 289 308 310 233 270 296 308 304 301 319 336 342
102 101 86 68 54 18 15 29 33 18 6 350 342 343 344 336 328 330 316 313 319 319 332 336 335 330 318 313 290 227 244 266 290 297 275 271 294 317 311 301 314 334 345